Location: Holyhead Bay
(53.3667°N, 4.6667°W)
Time: 19:55:19
(UTC+00:00)

USA 267 - Pass Details

Date: 24 November 2020
Orbit: 1100 x 1107 km, 123.0° (Epoch: 06 January)

Event Time Altitude Azimuth Distance (km) Brightness Sun altitude
Exits shadow 19:09:01 20° 156° (SSE) 2,301 4.7 -25.9°
Maximum altitude 19:13:22 46° 221° (SW) 1,436 4.0 -26.5°
Drops below altitude 10° 19:19:37 10° 294° (WNW) 2,965 6.4 -27.5°
Sets 19:22:15 0° 300° (WNW) 3,927 7.1 -27.9°
